Location: Mascot Post Office (historical)
(40.2645°N, 99.5462°W)
Time: 17:01:45
(UTC+00:00)

ARGOS - Pass Details

Date: 14 July 2020
Orbit: 819 x 835 km, 98.5° (Epoch: 05 August)

Event Time Altitude Azimuth Distance (km) Brightness Sun altitude
Rises 02:42:57 0° 184° (S) 3,368 6.0 -6.5°
Reaches altitude 10° 02:45:25 10° 191° (S) 2,438 5.4 -6.9°
Maximum altitude 02:50:32 43° 262° (W) 1,165 4.4 -7.7°
Drops below altitude 10° 02:55:41 10° 333° (NNW) 2,450 6.8 -8.5°
Sets 02:58:11 0° 340° (NNW) 3,387 7.4 -8.8°
